Voltar ao catálogo

ASTROBIO CUBESAT

LostCiênciaMEO
NORAD 53107·PAYLOAD·🇮🇹 Italy
Este nome de satélite ainda não foi confirmado por fontes oficiais.

Lançado Jul 13, 2022 de Guiana Space Centre

Loading…

Próximas Passagens (próximas 24 horas)

TLE

ObsoletoSource: Space-Track

Época: Jan 25, 2023, 07:23 UTC

1 53107U 22080C   23025.30817819 -.00000003  00000-0  00000-0 0  9991
2 53107  70.1748   9.4735 0013378 210.3558 149.6328  6.42110577 12479

Acompanhe ASTROBIO CUBESAT em tempo real com AllMySat

Download on the App Store